When you browse on this site, cookies collect data to enhance your experience and personalize the content and advertising you see.
Visit our Privacy Policy to learn more. By continuing to use the site, you agree to this use of cookies and data.
  • In Österreich
  • Länderverzeichnis
  • Für 7 Tage
  • Wassertemperatur
  • Wetterkarte
  • News
  • Widgets
  • user-avatar
    Anmelden

    Stündliche Wetter Absam

    Heute, 19 Februar, Mittwoch

    Zeit Temperatur Niederschläge Wind Luftdruck Luftfeuchtigkeit
    00:00 +1°C° 0 mm 1 m/S 694 mmHg 88%
    01:00 +1°C° 0 mm 1 m/S 694 mmHg 86%
    02:00 0°C° 0 mm 1 m/S 693 mmHg 84%
    03:00 0°C° 0 mm 1 m/S 693 mmHg 82%
    04:00 -1°C° 0 mm 1 m/S 692 mmHg 80%
    05:00 -1°C° 0 mm 1 m/S 692 mmHg 77%
    06:00 0°C° 0 mm 1 m/S 692 mmHg 75%
    07:00 0°C° 0 mm 1 m/S 691 mmHg 72%
    08:00 +1°C° 0 mm 1 m/S 691 mmHg 68%
    09:00 +3°C° 0 mm 1 m/S 691 mmHg 64%
    10:00 +4°C° 0 mm 1 m/S 691 mmHg 60%
    11:00 +5°C° 0.1 mm 1 m/S 691 mmHg 63%
    12:00 +5°C° 0.1 mm 1 m/S 691 mmHg 65%
    13:00 +5°C° 0.1 mm 2 m/S 691 mmHg 68%
    14:00 +4°C° 0.6 mm 2 m/S 691 mmHg 72%
    15:00 +2°C° 0.6 mm 3 m/S 691 mmHg 76%
    16:00 +1°C° 0.6 mm 3 m/S 691 mmHg 80%
    17:00 0°C° 0.5 mm 3 m/S 691 mmHg 84%
    18:00 -1°C° 0.5 mm 2 m/S 692 mmHg 89%
    19:00 -2°C° 0.5 mm 2 m/S 693 mmHg 93%
    20:00 0°C° 0.3 mm 1 m/S 693 mmHg 93%
    21:00 0°C° 0.3 mm 1 m/S 693 mmHg 94%
    22:00 0°C° 0.3 mm 1 m/S 694 mmHg 94%
    23:00 -1°C° 0.1 mm 1 m/S 694 mmHg 92%

    Morgen, 20 Februar, Donnerstag

    Zeit Temperatur Niederschläge Wind Luftdruck Luftfeuchtigkeit
    00:00 -1°C° 0.1 mm 1 m/S 694 mmHg 90%
    01:00 -1°C° 0.1 mm 1 m/S 694 mmHg 88%
    02:00 -1°C° 0 mm 1 m/S 693 mmHg 85%
    03:00 -1°C° 0 mm 1 m/S 693 mmHg 82%
    04:00 -3°C° 0 mm 2 m/S 693 mmHg 79%
    05:00 -1°C° 0 mm 1 m/S 693 mmHg 76%
    06:00 0°C° 0 mm 1 m/S 693 mmHg 73%
    07:00 0°C° 0 mm 1 m/S 693 mmHg 70%
    08:00 +2°C° 0 mm 1 m/S 693 mmHg 66%
    09:00 +4°C° 0 mm 1 m/S 693 mmHg 63%
    10:00 +4°C° 0 mm 0 m/S 693 mmHg 60%
    11:00 +5°C° 0 mm 0 m/S 693 mmHg 61%
    12:00 +6°C° 0 mm 0 m/S 692 mmHg 62%
    13:00 +7°C° 0 mm 0 m/S 692 mmHg 64%
    14:00 +7°C° 0 mm 0 m/S 692 mmHg 66%
    15:00 +8°C° 0 mm 1 m/S 691 mmHg 69%
    16:00 +8°C° 0 mm 1 m/S 691 mmHg 71%
    17:00 +7°C° 0 mm 1 m/S 691 mmHg 72%
    18:00 +5°C° 0 mm 1 m/S 691 mmHg 73%
    19:00 +3°C° 0 mm 2 m/S 691 mmHg 74%
    20:00 +3°C° 0 mm 2 m/S 691 mmHg 72%
    21:00 +3°C° 0 mm 2 m/S 691 mmHg 71%
    22:00 +4°C° 0 mm 1 m/S 691 mmHg 70%
    23:00 +3°C° 0 mm 1 m/S 691 mmHg 70%

    übermorgen, 21 Februar, Freitag

    Zeit Temperatur Niederschläge Wind Luftdruck Luftfeuchtigkeit
    00:00 +3°C° 0 mm 1 m/S 691 mmHg 71%
    01:00 +2°C° 0 mm 1 m/S 691 mmHg 71%
    02:00 +2°C° 0 mm 1 m/S 691 mmHg 74%
    03:00 +1°C° 0 mm 2 m/S 691 mmHg 78%
    04:00 -1°C° 0 mm 2 m/S 691 mmHg 81%
    05:00 +1°C° 0.2 mm 2 m/S 692 mmHg 82%
    06:00 +1°C° 0.2 mm 2 m/S 693 mmHg 83%
    07:00 +2°C° 0.2 mm 1 m/S 693 mmHg 83%
    14:00 +3°C° 0 mm 2 m/S 696 mmHg 84%
    15:00 +4°C° 0 mm 1 m/S 696 mmHg 83%
    16:00 +4°C° 0 mm 1 m/S 696 mmHg 82%
    17:00 +3°C° 0 mm 1 m/S 697 mmHg 84%
    18:00 +2°C° 0 mm 1 m/S 697 mmHg 87%
    19:00 0°C° 0 mm 0 m/S 698 mmHg 90%
    20:00 0°C° 0 mm 1 m/S 698 mmHg 88%
    21:00 0°C° 0 mm 1 m/S 698 mmHg 86%
    22:00 0°C° 0 mm 1 m/S 698 mmHg 84%
    23:00 0°C° 0 mm 1 m/S 698 mmHg 79%

    22 Februar, Samstag

    Zeit Temperatur Niederschläge Wind Luftdruck Luftfeuchtigkeit
    00:00 0°C° 0 mm 1 m/S 698 mmHg 75%
    01:00 +1°C° 0 mm 1 m/S 698 mmHg 71%
    02:00 +1°C° 0 mm 1 m/S 698 mmHg 68%
    03:00 +1°C° 0 mm 1 m/S 698 mmHg 65%
    04:00 +1°C° 0 mm 1 m/S 698 mmHg 62%
    05:00 +1°C° 0 mm 1 m/S 698 mmHg 59%
    06:00 +1°C° 0 mm 1 m/S 698 mmHg 57%
    07:00 +1°C° 0 mm 1 m/S 698 mmHg 54%
    08:00 +4°C° 0 mm 1 m/S 698 mmHg 55%
    09:00 +6°C° 0 mm 1 m/S 698 mmHg 56%
    10:00 +8°C° 0 mm 1 m/S 699 mmHg 57%
    11:00 +9°C° 0 mm 1 m/S 699 mmHg 58%
    12:00 +9°C° 0 mm 0 m/S 699 mmHg 59%
    13:00 +10°C° 0 mm 0 m/S 699 mmHg 60%
    14:00 +10°C° 0 mm 0 m/S 698 mmHg 64%
    15:00 +9°C° 0 mm 0 m/S 698 mmHg 67%
    16:00 +9°C° 0 mm 0 m/S 697 mmHg 71%
    17:00 +9°C° 0 mm 1 m/S 698 mmHg 67%
    18:00 +7°C° 0 mm 1 m/S 698 mmHg 64%
    19:00 +6°C° 0 mm 1 m/S 698 mmHg 61%
    20:00 +5°C° 0 mm 2 m/S 698 mmHg 61%
    21:00 +5°C° 0 mm 2 m/S 698 mmHg 60%
    22:00 +4°C° 0 mm 2 m/S 699 mmHg 60%
    23:00 +5°C° 0 mm 2 m/S 698 mmHg 58%

    23 Februar, Sonntag

    Zeit Temperatur Niederschläge Wind Luftdruck Luftfeuchtigkeit
    00:00 +5°C° 0 mm 2 m/S 698 mmHg 55%
    01:00 +5°C° 0 mm 2 m/S 698 mmHg 53%
    02:00 +5°C° 0 mm 2 m/S 698 mmHg 51%
    03:00 +5°C° 0 mm 2 m/S 698 mmHg 50%
    04:00 +5°C° 0 mm 2 m/S 698 mmHg 48%
    05:00 +5°C° 0 mm 2 m/S 698 mmHg 47%
    06:00 +5°C° 0 mm 2 m/S 698 mmHg 46%
    07:00 +5°C° 0 mm 2 m/S 697 mmHg 44%
    08:00 +7°C° 0 mm 1 m/S 698 mmHg 49%
    09:00 +9°C° 0 mm 1 m/S 698 mmHg 53%
    10:00 +11°C° 0 mm 1 m/S 698 mmHg 58%
    11:00 +11°C° 0 mm 1 m/S 697 mmHg 59%
    12:00 +12°C° 0 mm 1 m/S 697 mmHg 60%
    13:00 +13°C° 0 mm 1 m/S 697 mmHg 61%
    14:00 +13°C° 0 mm 1 m/S 696 mmHg 65%
    15:00 +12°C° 0 mm 1 m/S 696 mmHg 68%
    16:00 +12°C° 0 mm 1 m/S 695 mmHg 72%
    17:00 +10°C° 0 mm 1 m/S 695 mmHg 68%
    18:00 +8°C° 0 mm 2 m/S 695 mmHg 64%
    19:00 +6°C° 0 mm 2 m/S 695 mmHg 59%
    20:00 +6°C° 0 mm 2 m/S 695 mmHg 57%
    21:00 +6°C° 0 mm 2 m/S 695 mmHg 55%
    22:00 +6°C° 0 mm 2 m/S 695 mmHg 53%
    23:00 +6°C° 0 mm 2 m/S 695 mmHg 53%

    24 Februar, Montag

    Zeit Temperatur Niederschläge Wind Luftdruck Luftfeuchtigkeit
    00:00 +5°C° 0 mm 2 m/S 695 mmHg 52%
    01:00 +5°C° 0 mm 2 m/S 695 mmHg 52%
    02:00 +5°C° 0 mm 2 m/S 695 mmHg 54%
    03:00 +5°C° 0 mm 2 m/S 695 mmHg 56%
    04:00 +5°C° 0 mm 2 m/S 694 mmHg 57%
    05:00 +5°C° 0.4 mm 2 m/S 695 mmHg 66%
    06:00 +5°C° 0.4 mm 2 m/S 695 mmHg 74%
    07:00 +5°C° 0.4 mm 2 m/S 695 mmHg 83%
    08:00 +5°C° 1.1 mm 2 m/S 696 mmHg 87%
    09:00 +5°C° 1.1 mm 2 m/S 696 mmHg 92%
    10:00 +5°C° 1.1 mm 2 m/S 696 mmHg 97%
    11:00 +6°C° 0.7 mm 2 m/S 696 mmHg 97%
    12:00 +7°C° 0.7 mm 1 m/S 696 mmHg 97%
    13:00 +7°C° 0.7 mm 1 m/S 696 mmHg 98%
    14:00 +8°C° 0.2 mm 1 m/S 696 mmHg 98%
    15:00 +8°C° 0.2 mm 1 m/S 696 mmHg 98%
    16:00 +8°C° 0.2 mm 1 m/S 696 mmHg 98%
    17:00 +7°C° 0 mm 1 m/S 695 mmHg 96%
    18:00 +7°C° 0 mm 1 m/S 695 mmHg 95%
    19:00 +6°C° 0 mm 1 m/S 695 mmHg 94%
    20:00 +6°C° 0 mm 1 m/S 695 mmHg 91%
    21:00 +6°C° 0 mm 1 m/S 695 mmHg 88%
    22:00 +6°C° 0 mm 1 m/S 695 mmHg 85%
    23:00 +6°C° 0 mm 1 m/S 694 mmHg 83%
    Mehr zeigen